Sheridan, WY

8:37 AM MST on November 23, 2017 (GMT -0700)
Sheridan County

Weather History for KSHR - September, 2014

Change the Weather History Date:

Friday, September 19, 2014

  Actual Average Record
Temperature  
Mean Temperature 65 °F 56 °F  
Max Temperature 78 °F 72 °F 95 °F (1981)
Min Temperature 51 °F 40 °F 24 °F (1965)
Degree Days  
Heating Degree Days 0 9  
Month to date heating degree days 184 113  
Since 1 July heating degree days 234 175  
Cooling Degree Days 0 0  
Month to date cooling degree days 15 26  
Year to date cooling degree days 333 416  
Growing Degree Days 16 (Base 50)    
Moisture  
Dew Point 51 °F    
Average Humidity 66    
Maximum Humidity 93    
Minimum Humidity 39    
Precipitation  
Precipitation 0.00 in 0.06 in 1.30 in (1907)
Month to date precipitation 1.54 0.83  
Year to date precipitation 12.61 10.88  
Sea Level Pressure  
Sea Level Pressure 29.85 in    
Wind  
Wind Speed 6 mph (West)    
Max Wind Speed 17 mph    
Max Gust Speed 23 mph    
Visibility 10 miles    
Events      
T = Trace of Precipitation, MM = Missing Value Source: NWS Daily Summary

Daily Weather History Graph

Daily Weather History Graph

Search for Another Location

Airport or City:

Trip Planner

Search our weather history database for the weather conditions in past years. The results will help you decide how hot, cold, wet, or windy it might be!

Date:

Astronomy

Sep. 19, 2014 Rise Set
Actual Time 6:51 AM MDT 7:10 PM MDT
Civil Twilight 6:22 AM MDT 7:40 PM MDT
Nautical Twilight 5:47 AM MDT 8:14 PM MDT
Astronomical Twilight 5:12 AM MDT 8:49 PM MDT
Moon 2:30 AM MDT (9/19) 4:48 PM MDT (9/19)
Length of Visible Light 13h 17m
Length of Day
12h 19m
Waning Crescent, 18% of the Moon is Illuminated
Sep 19
Waning Crescent
Sep 24
New
Oct 1
First Quarter
Oct 8
Full
Oct 15
Last Quarter

Hourly Weather History & Observations

Time (MDT) Temp. Dew Point Humidity Pressure Visibility Wind Dir Wind Speed Gust Speed Precip Events Conditions
12:53 AM 60.1 °F 55.9 °F 86% 29.75 in 10.0 mi SSW 8.1 mph - 0.00 in   Mostly Cloudy
1:53 AM 57.9 °F 55.0 °F 90% 29.74 in 10.0 mi SSW 5.8 mph - N/A   Partly Cloudy
2:53 AM 61.0 °F 54.0 °F 78% 29.71 in 10.0 mi WSW 5.8 mph - N/A   Partly Cloudy
3:53 AM 63.0 °F 53.1 °F 70% 29.72 in 10.0 mi West 9.2 mph - N/A   Overcast
4:53 AM 62.1 °F 51.1 °F 67% 29.74 in 10.0 mi Calm Calm - N/A   Scattered Clouds
5:53 AM 59.0 °F 51.1 °F 75% 29.77 in 10.0 mi Calm Calm - N/A   Scattered Clouds
6:53 AM 55.4 °F 50.0 °F 82% 29.88 in 10.0 mi WSW 6.9 mph - N/A   Clear
7:53 AM 55.9 °F 51.1 °F 84% 29.82 in 10.0 mi South 6.9 mph - N/A   Partly Cloudy
8:53 AM 64.9 °F 52.0 °F 63% 29.83 in 10.0 mi SW 4.6 mph - N/A   Clear
9:53 AM 68.0 °F 55.0 °F 63% 29.83 in 10.0 mi Calm Calm - N/A   Clear
10:53 AM 73.0 °F 53.1 °F 49% 29.83 in 10.0 mi North 6.9 mph - N/A   Clear
11:53 AM 75.0 °F 51.1 °F 43% 29.83 in 10.0 mi North 5.8 mph - N/A   Clear
12:53 PM 75.9 °F 51.1 °F 42% 29.83 in 10.0 mi NW 11.5 mph - N/A   Partly Cloudy
1:53 PM 77.0 °F 50.0 °F 39% 29.83 in 10.0 mi NNW 9.2 mph 23.0 mph N/A   Clear
2:53 PM 78.1 °F 51.1 °F 39% 29.81 in 10.0 mi NW 13.8 mph - N/A   Partly Cloudy
3:53 PM 73.9 °F 48.0 °F 40% 29.83 in 10.0 mi North 15.0 mph 20.7 mph N/A   Scattered Clouds
4:53 PM 73.9 °F 48.9 °F 41% 29.85 in 10.0 mi NNW 9.2 mph - N/A   Clear
5:53 PM 71.1 °F 48.0 °F 44% 29.88 in 10.0 mi NW 10.4 mph - N/A   Mostly Cloudy
6:53 PM 66.0 °F 48.9 °F 54% 29.92 in 10.0 mi NW 4.6 mph - N/A   Mostly Cloudy
7:53 PM 62.1 °F 48.0 °F 60% 29.95 in 10.0 mi WNW 8.1 mph - N/A   Clear
8:53 PM 57.9 °F 48.9 °F 72% 29.96 in 10.0 mi South 4.6 mph - N/A   Scattered Clouds
9:53 PM 57.0 °F 48.9 °F 74% 29.97 in 10.0 mi SSE 5.8 mph - N/A   Scattered Clouds
10:53 PM 57.0 °F 48.0 °F 72% 29.97 in 10.0 mi SSE 3.5 mph - N/A   Partly Cloudy
11:53 PM 55.0 °F 46.0 °F 72% 29.98 in 10.0 mi South 3.5 mph - N/A   Clear